SPACEBEE-3

Last updated on Tue Oct 04 2022 00:03:39 GMT+0000 (Coordinated Universal Time)

1 43140U 18004AF 22275.88077623 .18309537 25640-5 47414-3 0 9995 2 43140 97.3481 9.6210 0019483 280.1672 79.7432 16.43882287263917

Satellite not in orbit